Year,Month,Day,Hour,Minute,Value (Times are PST for temperature in C)
2010,08,15,00,00,21.10
2010,08,15,00,01,21.10
2010,08,15,00,02,21.00
2010,08,15,00,03,21.00
2010,08,15,00,04,21.10
2010,08,15,00,05,21.10
2010,08,15,00,06,21.10
2010,08,15,00,07,21.10
2010,08,15,00,08,21.00
2010,08,15,00,09,21.00
2010,08,15,00,10,21.00
2010,08,15,00,11,21.00
2010,08,15,00,12,20.90
2010,08,15,00,13,20.90
2010,08,15,00,14,20.90
2010,08,15,00,15,20.90
2010,08,15,00,16,20.80
2010,08,15,00,17,20.80
2010,08,15,00,18,20.80
2010,08,15,00,19,20.80
2010,08,15,00,20,20.80
2010,08,15,00,21,20.70
2010,08,15,00,22,20.70
2010,08,15,00,23,20.70
2010,08,15,00,24,20.60
2010,08,15,00,25,20.60
2010,08,15,00,26,20.60
2010,08,15,00,27,20.50
2010,08,15,00,28,20.50
2010,08,15,00,29,20.40
2010,08,15,00,30,20.40
2010,08,15,00,31,20.40
2010,08,15,00,32,20.30
2010,08,15,00,33,20.30
2010,08,15,00,34,20.30
2010,08,15,00,35,20.20
2010,08,15,00,36,20.20
2010,08,15,00,37,20.20
2010,08,15,00,38,20.20
2010,08,15,00,39,20.20
2010,08,15,00,40,20.20
2010,08,15,00,41,20.20
2010,08,15,00,42,20.20
2010,08,15,00,43,20.20
2010,08,15,00,44,20.20
2010,08,15,00,45,20.20
2010,08,15,00,46,20.20
2010,08,15,00,47,20.30
2010,08,15,00,48,20.30
2010,08,15,00,49,20.30
2010,08,15,00,50,20.40
2010,08,15,00,51,20.40
2010,08,15,00,52,20.40
2010,08,15,00,53,20.40
2010,08,15,00,54,20.40
2010,08,15,00,55,20.40
2010,08,15,00,56,20.30
2010,08,15,00,57,20.30
2010,08,15,00,58,20.30
2010,08,15,00,59,20.30
2010,08,15,01,00,20.30
2010,08,15,01,01,20.20
2010,08,15,01,02,20.20
2010,08,15,01,03,20.20
2010,08,15,01,04,20.20
2010,08,15,01,05,20.20
2010,08,15,01,06,20.20
2010,08,15,01,07,20.20
2010,08,15,01,08,20.20
2010,08,15,01,09,20.20
2010,08,15,01,10,20.20
2010,08,15,01,11,20.20
2010,08,15,01,12,20.20
2010,08,15,01,13,20.10
2010,08,15,01,14,20.10
2010,08,15,01,15,20.10
2010,08,15,01,16,20.00
2010,08,15,01,17,19.90
2010,08,15,01,18,19.90
2010,08,15,01,19,19.90
2010,08,15,01,20,19.90
2010,08,15,01,21,19.80
2010,08,15,01,22,19.80
2010,08,15,01,23,19.70
2010,08,15,01,24,19.70
2010,08,15,01,25,19.60
2010,08,15,01,26,19.60
2010,08,15,01,27,19.60
2010,08,15,01,28,19.50
2010,08,15,01,29,19.50
2010,08,15,01,30,19.50
2010,08,15,01,31,19.50
2010,08,15,01,32,19.50
2010,08,15,01,33,19.50
2010,08,15,01,34,19.50
2010,08,15,01,35,19.50
2010,08,15,01,36,19.50
2010,08,15,01,37,19.50
2010,08,15,01,38,19.50
2010,08,15,01,39,19.50
2010,08,15,01,40,19.40
2010,08,15,01,41,19.40
2010,08,15,01,42,19.40
2010,08,15,01,43,19.30
2010,08,15,01,44,19.30
2010,08,15,01,45,19.20
2010,08,15,01,46,19.20
2010,08,15,01,47,19.20
2010,08,15,01,48,19.20
2010,08,15,01,49,19.20
2010,08,15,01,50,19.20
2010,08,15,01,51,19.20
2010,08,15,01,52,19.30
2010,08,15,01,53,19.40
2010,08,15,01,54,19.40
2010,08,15,01,55,19.50
2010,08,15,01,56,19.50
2010,08,15,01,57,19.60
2010,08,15,01,58,19.60
2010,08,15,01,59,19.60
2010,08,15,02,00,19.70
2010,08,15,02,01,19.70
2010,08,15,02,02,19.70
2010,08,15,02,03,19.70
2010,08,15,02,04,19.70
2010,08,15,02,05,19.70
2010,08,15,02,06,19.70
2010,08,15,02,07,19.70
2010,08,15,02,08,19.70
2010,08,15,02,09,19.70
2010,08,15,02,10,19.70
2010,08,15,02,11,19.70
2010,08,15,02,12,19.70
2010,08,15,02,13,19.70
2010,08,15,02,14,19.70
2010,08,15,02,15,19.70
2010,08,15,02,16,19.70
2010,08,15,02,17,19.70
2010,08,15,02,18,19.70
2010,08,15,02,19,19.70
2010,08,15,02,20,19.70
2010,08,15,02,21,19.70
2010,08,15,02,22,19.70
2010,08,15,02,23,19.70
2010,08,15,02,24,19.70
2010,08,15,02,25,19.70
2010,08,15,02,26,19.70
2010,08,15,02,27,19.80
2010,08,15,02,28,19.80
2010,08,15,02,29,19.80
2010,08,15,02,30,19.80
2010,08,15,02,31,19.80
2010,08,15,02,32,19.80
2010,08,15,02,33,19.80
2010,08,15,02,34,19.80
2010,08,15,02,35,19.70
2010,08,15,02,36,19.70
2010,08,15,02,37,19.70
2010,08,15,02,38,19.70
2010,08,15,02,39,19.70
2010,08,15,02,40,19.70
2010,08,15,02,41,19.70
2010,08,15,02,42,19.60
2010,08,15,02,43,19.60
2010,08,15,02,44,19.60
2010,08,15,02,45,19.60
2010,08,15,02,46,19.70
2010,08,15,02,47,19.70
2010,08,15,02,48,19.70
2010,08,15,02,49,19.70
2010,08,15,02,50,19.80
2010,08,15,02,51,19.80
2010,08,15,02,52,19.90
2010,08,15,02,53,19.90
2010,08,15,02,54,19.90
2010,08,15,02,55,19.90
2010,08,15,02,56,19.90
2010,08,15,02,57,19.90
2010,08,15,02,58,19.90
2010,08,15,02,59,19.90
2010,08,15,03,00,19.90
2010,08,15,03,01,19.90
2010,08,15,03,02,19.90
2010,08,15,03,03,20.00
2010,08,15,03,04,20.10
2010,08,15,03,05,20.10
2010,08,15,03,06,20.20
2010,08,15,03,07,20.20
2010,08,15,03,08,20.20
2010,08,15,03,09,20.30
2010,08,15,03,10,20.30
2010,08,15,03,11,20.40
2010,08,15,03,12,20.40
2010,08,15,03,13,20.40
2010,08,15,03,14,20.50
2010,08,15,03,15,20.50
2010,08,15,03,16,20.50
2010,08,15,03,17,20.50
2010,08,15,03,18,20.40
2010,08,15,03,19,20.40
2010,08,15,03,20,20.40
2010,08,15,03,21,20.40
2010,08,15,03,22,20.40
2010,08,15,03,23,20.30
2010,08,15,03,24,20.30
2010,08,15,03,25,20.20
2010,08,15,03,26,20.20
2010,08,15,03,27,20.20
2010,08,15,03,28,20.20
2010,08,15,03,29,20.20
2010,08,15,03,30,20.20
2010,08,15,03,31,20.10
2010,08,15,03,32,20.10
2010,08,15,03,33,20.10
2010,08,15,03,34,20.10
2010,08,15,03,35,20.10
2010,08,15,03,36,20.10
2010,08,15,03,37,20.10
2010,08,15,03,38,20.20
2010,08,15,03,39,20.20
2010,08,15,03,40,20.20
2010,08,15,03,41,20.20
2010,08,15,03,42,20.20
2010,08,15,03,43,20.20
2010,08,15,03,44,20.20
2010,08,15,03,45,20.20
2010,08,15,03,46,20.20
2010,08,15,03,47,20.20
2010,08,15,03,48,20.20
2010,08,15,03,49,20.20
2010,08,15,03,50,20.20
2010,08,15,03,51,20.10
2010,08,15,03,52,20.10
2010,08,15,03,53,20.10
2010,08,15,03,54,20.00
2010,08,15,03,55,19.90
2010,08,15,03,56,19.90
2010,08,15,03,57,19.90
2010,08,15,03,58,19.90
2010,08,15,03,59,19.80
2010,08,15,04,00,19.80
2010,08,15,04,01,19.80
2010,08,15,04,02,19.80
2010,08,15,04,03,19.90
2010,08,15,04,04,19.90
2010,08,15,04,05,19.90
2010,08,15,04,06,19.90
2010,08,15,04,07,19.90
2010,08,15,04,08,20.00
2010,08,15,04,09,20.10
2010,08,15,04,10,20.20
2010,08,15,04,11,20.20
2010,08,15,04,12,20.20
2010,08,15,04,13,20.20
2010,08,15,04,14,20.20
2010,08,15,04,15,20.10
2010,08,15,04,16,20.10
2010,08,15,04,17,19.90
2010,08,15,04,18,19.90
2010,08,15,04,19,19.70
2010,08,15,04,20,19.60
2010,08,15,04,21,19.50
2010,08,15,04,22,19.40
2010,08,15,04,23,19.40
2010,08,15,04,24,19.30
2010,08,15,04,25,19.30
2010,08,15,04,26,19.20
2010,08,15,04,27,19.20
2010,08,15,04,28,19.20
2010,08,15,04,29,19.20
2010,08,15,04,30,19.20
2010,08,15,04,31,19.20
2010,08,15,04,32,19.20
2010,08,15,04,33,19.20
2010,08,15,04,34,19.20
2010,08,15,04,35,19.10
2010,08,15,04,36,19.10
2010,08,15,04,37,19.10
2010,08,15,04,38,19.10
2010,08,15,04,39,19.10
2010,08,15,04,40,19.10
2010,08,15,04,41,19.10
2010,08,15,04,42,19.10
2010,08,15,04,43,19.10
2010,08,15,04,44,19.00
2010,08,15,04,45,18.90
2010,08,15,04,46,18.90
2010,08,15,04,47,18.90
2010,08,15,04,48,18.80
2010,08,15,04,49,18.80
2010,08,15,04,50,18.70
2010,08,15,04,51,18.70
2010,08,15,04,52,18.70
2010,08,15,04,53,18.70
2010,08,15,04,54,18.70
2010,08,15,04,55,18.60
2010,08,15,04,56,18.60
2010,08,15,04,57,18.60
2010,08,15,04,58,18.60
2010,08,15,04,59,18.60
2010,08,15,05,00,18.70
2010,08,15,05,01,18.70
2010,08,15,05,02,18.70
2010,08,15,05,03,18.80
2010,08,15,05,04,18.80
2010,08,15,05,05,18.90
2010,08,15,05,06,18.90
2010,08,15,05,07,18.90
2010,08,15,05,08,18.90
2010,08,15,05,09,18.90
2010,08,15,05,10,18.90
2010,08,15,05,11,18.90
2010,08,15,05,12,18.90
2010,08,15,05,13,18.90
2010,08,15,05,14,18.90
2010,08,15,05,15,18.90
2010,08,15,05,16,18.90
2010,08,15,05,17,18.90
2010,08,15,05,18,18.90
2010,08,15,05,19,18.90
2010,08,15,05,20,19.00
2010,08,15,05,21,19.10
2010,08,15,05,22,19.10
2010,08,15,05,23,19.10
2010,08,15,05,24,19.10
2010,08,15,05,25,19.10
2010,08,15,05,26,19.10
2010,08,15,05,27,19.10
2010,08,15,05,28,19.10
2010,08,15,05,29,19.10
2010,08,15,05,30,19.10
2010,08,15,05,31,19.10
2010,08,15,05,32,19.10
2010,08,15,05,33,19.10
2010,08,15,05,34,19.10
2010,08,15,05,35,19.10
2010,08,15,05,36,19.10
2010,08,15,05,37,19.10
2010,08,15,05,38,19.00
2010,08,15,05,39,18.90
2010,08,15,05,40,18.90
2010,08,15,05,41,18.90
2010,08,15,05,42,18.90
2010,08,15,05,43,18.90
2010,08,15,05,44,18.90
2010,08,15,05,45,18.90
2010,08,15,05,46,18.90
2010,08,15,05,47,18.90
2010,08,15,05,48,18.90
2010,08,15,05,49,18.90
2010,08,15,05,50,18.90
2010,08,15,05,51,18.80
2010,08,15,05,52,18.80
2010,08,15,05,53,18.80
2010,08,15,05,54,18.80
2010,08,15,05,55,18.90
2010,08,15,05,56,18.90
2010,08,15,05,57,18.90
2010,08,15,05,58,18.90
2010,08,15,05,59,18.90
2010,08,15,06,00,18.90
2010,08,15,06,01,18.90
2010,08,15,06,02,18.90
2010,08,15,06,03,18.90
2010,08,15,06,04,18.90
2010,08,15,06,05,18.90
2010,08,15,06,06,18.90
2010,08,15,06,07,18.90
2010,08,15,06,08,18.90
2010,08,15,06,09,18.90
2010,08,15,06,10,18.90
2010,08,15,06,11,18.90
2010,08,15,06,12,18.90
2010,08,15,06,13,18.90
2010,08,15,06,14,19.00
2010,08,15,06,15,19.10
2010,08,15,06,16,19.10
2010,08,15,06,17,19.20
2010,08,15,06,18,19.30
2010,08,15,06,19,19.40
2010,08,15,06,20,19.40
2010,08,15,06,21,19.50
2010,08,15,06,22,19.50
2010,08,15,06,23,19.50
2010,08,15,06,24,19.50
2010,08,15,06,25,19.40
2010,08,15,06,26,19.40
2010,08,15,06,27,19.30
2010,08,15,06,28,19.30
2010,08,15,06,29,19.30
2010,08,15,06,30,19.30
2010,08,15,06,31,19.10
2010,08,15,06,32,19.10
2010,08,15,06,33,19.10
2010,08,15,06,34,19.00
2010,08,15,06,35,18.90
2010,08,15,06,36,18.80
2010,08,15,06,37,18.70
2010,08,15,06,38,18.50
2010,08,15,06,39,18.50
2010,08,15,06,40,18.30
2010,08,15,06,41,18.20
2010,08,15,06,42,18.20
2010,08,15,06,43,18.20
2010,08,15,06,44,18.20
2010,08,15,06,45,18.20
2010,08,15,06,46,18.20
2010,08,15,06,47,18.20
2010,08,15,06,48,18.20
2010,08,15,06,49,18.20
2010,08,15,06,50,18.10
2010,08,15,06,51,18.00
2010,08,15,06,52,17.80
2010,08,15,06,53,17.60
2010,08,15,06,54,17.40
2010,08,15,06,55,17.20
2010,08,15,06,56,17.00
2010,08,15,06,57,16.80
2010,08,15,06,58,16.70
2010,08,15,06,59,16.50
2010,08,15,07,00,16.40
2010,08,15,07,01,16.40
2010,08,15,07,02,16.40
2010,08,15,07,03,16.40
2010,08,15,07,04,16.40
2010,08,15,07,05,16.40
2010,08,15,07,06,16.40
2010,08,15,07,07,16.40
2010,08,15,07,08,16.40
2010,08,15,07,09,16.40
2010,08,15,07,10,16.40
2010,08,15,07,11,16.40
2010,08,15,07,12,16.50
2010,08,15,07,13,16.60
2010,08,15,07,14,16.60
2010,08,15,07,15,16.70
2010,08,15,07,16,16.70
2010,08,15,07,17,16.70
2010,08,15,07,18,16.70
2010,08,15,07,19,16.70
2010,08,15,07,20,16.70
2010,08,15,07,21,16.70
2010,08,15,07,22,16.70
2010,08,15,07,23,16.80
2010,08,15,07,24,16.90
2010,08,15,07,25,16.90
2010,08,15,07,26,17.00
2010,08,15,07,27,17.10
2010,08,15,07,28,17.10
2010,08,15,07,29,17.20
2010,08,15,07,30,17.30
2010,08,15,07,31,17.40
2010,08,15,07,32,17.50
2010,08,15,07,33,17.50
2010,08,15,07,34,17.60
2010,08,15,07,35,17.70
2010,08,15,07,36,17.80
2010,08,15,07,37,17.90
2010,08,15,07,38,18.10
2010,08,15,07,39,18.20
2010,08,15,07,40,18.30
2010,08,15,07,41,18.40
2010,08,15,07,42,18.50
2010,08,15,07,43,18.60
2010,08,15,07,44,18.70
2010,08,15,07,45,18.80
2010,08,15,07,46,18.90
2010,08,15,07,47,18.90
2010,08,15,07,48,18.90
2010,08,15,07,49,19.10
2010,08,15,07,50,19.10
2010,08,15,07,51,19.20
2010,08,15,07,52,19.20
2010,08,15,07,53,19.30
2010,08,15,07,54,19.40
2010,08,15,07,55,19.40
2010,08,15,07,56,19.50
2010,08,15,07,57,19.60
2010,08,15,07,58,19.60
2010,08,15,07,59,19.70
2010,08,15,08,00,19.80
2010,08,15,08,01,19.80
2010,08,15,08,02,19.90
2010,08,15,08,03,19.90
2010,08,15,08,04,19.90
2010,08,15,08,05,19.90
2010,08,15,08,06,19.90
2010,08,15,08,07,20.00
2010,08,15,08,08,20.10
2010,08,15,08,09,20.20
2010,08,15,08,10,20.20
2010,08,15,08,11,20.30
2010,08,15,08,12,20.40
2010,08,15,08,13,20.40
2010,08,15,08,14,20.50
2010,08,15,08,15,20.50
2010,08,15,08,16,20.60
2010,08,15,08,17,20.60
2010,08,15,08,18,20.70
2010,08,15,08,19,20.80
2010,08,15,08,20,20.90
2010,08,15,08,21,21.00
2010,08,15,08,22,21.10
2010,08,15,08,23,21.20
2010,08,15,08,24,21.30
2010,08,15,08,25,21.40
2010,08,15,08,26,21.60
2010,08,15,08,27,21.60
2010,08,15,08,28,21.70
2010,08,15,08,29,21.80
2010,08,15,08,30,21.90
2010,08,15,08,31,22.00
2010,08,15,08,32,22.10
2010,08,15,08,33,22.20
2010,08,15,08,34,22.40
2010,08,15,08,35,22.50
2010,08,15,08,36,22.60
2010,08,15,08,37,22.70
2010,08,15,08,38,22.80
2010,08,15,08,39,22.90
2010,08,15,08,40,23.10
2010,08,15,08,41,23.20
2010,08,15,08,42,23.40
2010,08,15,08,43,23.50
2010,08,15,08,44,23.60
2010,08,15,08,45,23.70
2010,08,15,08,46,23.80
2010,08,15,08,47,23.90
2010,08,15,08,48,23.90
2010,08,15,08,49,23.90
2010,08,15,08,50,24.00
2010,08,15,08,51,24.10
2010,08,15,08,52,24.10
2010,08,15,08,53,24.00
2010,08,15,08,54,24.10
2010,08,15,08,55,24.10
2010,08,15,08,56,24.10
2010,08,15,08,57,24.10
2010,08,15,08,58,24.20
2010,08,15,08,59,24.20
2010,08,15,09,00,24.20
2010,08,15,09,01,24.20
2010,08,15,09,02,24.30
2010,08,15,09,03,24.30
2010,08,15,09,04,24.30
2010,08,15,09,05,24.40
2010,08,15,09,06,24.40
2010,08,15,09,07,24.50
2010,08,15,09,08,24.50
2010,08,15,09,09,24.40
2010,08,15,09,10,24.50
2010,08,15,09,11,24.50
2010,08,15,09,12,24.60
2010,08,15,09,13,24.60
2010,08,15,09,14,24.60
2010,08,15,09,15,24.70
2010,08,15,09,16,24.70
2010,08,15,09,17,24.70
2010,08,15,09,18,24.80
2010,08,15,09,19,24.80
2010,08,15,09,20,24.90
2010,08,15,09,21,24.90
2010,08,15,09,22,24.90
2010,08,15,09,23,24.90
2010,08,15,09,24,24.90
2010,08,15,09,25,25.00
2010,08,15,09,26,25.10
2010,08,15,09,27,25.20
2010,08,15,09,28,25.20
2010,08,15,09,29,25.30
2010,08,15,09,30,25.40
2010,08,15,09,31,25.50
2010,08,15,09,32,25.50
2010,08,15,09,33,25.60
2010,08,15,09,34,25.70
2010,08,15,09,35,25.70
2010,08,15,09,36,25.70
2010,08,15,09,37,25.70
2010,08,15,09,38,25.70
2010,08,15,09,39,25.70
2010,08,15,09,40,25.60
2010,08,15,09,41,25.50
2010,08,15,09,42,25.40
2010,08,15,09,43,25.40
2010,08,15,09,44,25.40
2010,08,15,09,45,25.50
2010,08,15,09,46,25.50
2010,08,15,09,47,25.50
2010,08,15,09,48,25.50
2010,08,15,09,49,25.60
2010,08,15,09,50,25.70
2010,08,15,09,51,25.70
2010,08,15,09,52,25.70
2010,08,15,09,53,25.70
2010,08,15,09,54,25.60
2010,08,15,09,55,25.60
2010,08,15,09,56,25.60
2010,08,15,09,57,25.60
2010,08,15,09,58,25.60
2010,08,15,09,59,25.60
2010,08,15,10,00,25.70
2010,08,15,10,01,25.70
2010,08,15,10,02,25.80
2010,08,15,10,03,25.80
2010,08,15,10,04,25.80
2010,08,15,10,05,25.90
2010,08,15,10,06,25.90
2010,08,15,10,07,25.90
2010,08,15,10,08,25.90
2010,08,15,10,09,25.90
2010,08,15,10,10,25.90
2010,08,15,10,11,26.00
2010,08,15,10,12,26.00
2010,08,15,10,13,26.00
2010,08,15,10,14,26.10
2010,08,15,10,15,26.10
2010,08,15,10,16,26.10
2010,08,15,10,17,26.10
2010,08,15,10,18,26.10
2010,08,15,10,19,26.10
2010,08,15,10,20,26.20
2010,08,15,10,21,26.40
2010,08,15,10,22,26.50
2010,08,15,10,23,26.60
2010,08,15,10,24,26.60
2010,08,15,10,25,26.70
2010,08,15,10,26,26.70
2010,08,15,10,27,26.70
2010,08,15,10,28,26.70
2010,08,15,10,29,26.70
2010,08,15,10,30,26.70
2010,08,15,10,31,26.60
2010,08,15,10,32,26.60
2010,08,15,10,33,26.50
2010,08,15,10,34,26.40
2010,08,15,10,35,26.30
2010,08,15,10,36,26.20
2010,08,15,10,37,26.10
2010,08,15,10,38,26.00
2010,08,15,10,39,26.00
2010,08,15,10,40,26.00
2010,08,15,10,41,26.00
2010,08,15,10,42,26.00
2010,08,15,10,43,26.10
2010,08,15,10,44,26.10
2010,08,15,10,45,26.10
2010,08,15,10,46,26.10
2010,08,15,10,47,26.10
2010,08,15,10,48,26.20
2010,08,15,10,49,26.20
2010,08,15,10,50,26.20
2010,08,15,10,51,26.30
2010,08,15,10,52,26.40
2010,08,15,10,53,26.60
2010,08,15,10,54,26.70
2010,08,15,10,55,26.80
2010,08,15,10,56,26.90
2010,08,15,10,57,27.00
2010,08,15,10,58,27.10
2010,08,15,10,59,27.10
2010,08,15,11,00,27.20
2010,08,15,11,01,27.20
2010,08,15,11,02,27.30
2010,08,15,11,03,27.20
2010,08,15,11,04,27.20
2010,08,15,11,05,27.10
2010,08,15,11,06,27.10
2010,08,15,11,07,27.20
2010,08,15,11,08,27.30
2010,08,15,11,09,27.40
2010,08,15,11,10,27.50
2010,08,15,11,11,27.70
2010,08,15,11,12,27.80
2010,08,15,11,13,27.90
2010,08,15,11,14,28.00
2010,08,15,11,15,28.10
2010,08,15,11,16,28.20
2010,08,15,11,17,28.30
2010,08,15,11,18,28.40
2010,08,15,11,19,28.60
2010,08,15,11,20,28.60
2010,08,15,11,21,28.40
2010,08,15,11,22,28.30
2010,08,15,11,23,28.10
2010,08,15,11,24,28.20
2010,08,15,11,25,28.20
2010,08,15,11,26,28.20
2010,08,15,11,27,28.30
2010,08,15,11,28,28.40
2010,08,15,11,29,28.60
2010,08,15,11,30,28.70
2010,08,15,11,31,28.60
2010,08,15,11,32,28.60
2010,08,15,11,33,28.60
2010,08,15,11,34,28.60
2010,08,15,11,35,28.60
2010,08,15,11,36,28.60
2010,08,15,11,37,28.70
2010,08,15,11,38,28.70
2010,08,15,11,39,28.70
2010,08,15,11,40,28.60
2010,08,15,11,41,28.60
2010,08,15,11,42,28.60
2010,08,15,11,43,28.80
2010,08,15,11,44,28.90
2010,08,15,11,45,28.90
2010,08,15,11,46,28.90
2010,08,15,11,47,28.80
2010,08,15,11,48,28.80
2010,08,15,11,49,28.80
2010,08,15,11,50,28.90
2010,08,15,11,51,28.90
2010,08,15,11,52,28.90
2010,08,15,11,53,29.00
2010,08,15,11,54,29.10
2010,08,15,11,55,29.20
2010,08,15,11,56,29.20
2010,08,15,11,57,29.20
2010,08,15,11,58,29.20
2010,08,15,11,59,29.20
2010,08,15,12,00,29.20
2010,08,15,12,01,29.30
2010,08,15,12,02,29.40
2010,08,15,12,03,29.50
2010,08,15,12,04,29.60
2010,08,15,12,05,29.60
2010,08,15,12,06,29.60
2010,08,15,12,07,29.70
2010,08,15,12,08,29.70
2010,08,15,12,09,29.70
2010,08,15,12,10,29.70
2010,08,15,12,11,29.70
2010,08,15,12,12,29.70
2010,08,15,12,13,29.60
2010,08,15,12,14,29.60
2010,08,15,12,15,29.60
2010,08,15,12,16,29.60
2010,08,15,12,17,29.70
2010,08,15,12,18,29.70
2010,08,15,12,19,29.70
2010,08,15,12,20,29.70
2010,08,15,12,21,29.70
2010,08,15,12,22,29.80
2010,08,15,12,23,29.80
2010,08,15,12,24,29.80
2010,08,15,12,25,29.80
2010,08,15,12,26,29.80
2010,08,15,12,27,29.90
2010,08,15,12,28,29.90
2010,08,15,12,29,29.90
2010,08,15,12,30,30.00
2010,08,15,12,31,30.10
2010,08,15,12,32,30.10
2010,08,15,12,33,30.10
2010,08,15,12,34,30.20
2010,08,15,12,35,30.30
2010,08,15,12,36,30.30
2010,08,15,12,37,30.30
2010,08,15,12,38,30.30
2010,08,15,12,39,30.40
2010,08,15,12,40,30.40
2010,08,15,12,41,30.40
2010,08,15,12,42,30.60
2010,08,15,12,43,30.70
2010,08,15,12,44,30.70
2010,08,15,12,45,30.70
2010,08,15,12,46,30.80
2010,08,15,12,47,30.80
2010,08,15,12,48,30.80
2010,08,15,12,49,30.80
2010,08,15,12,50,30.80
2010,08,15,12,51,30.70
2010,08,15,12,52,30.80
2010,08,15,12,53,30.70
2010,08,15,12,54,30.60
2010,08,15,12,55,30.50
2010,08,15,12,56,30.30
2010,08,15,12,57,30.20
2010,08,15,12,58,30.20
2010,08,15,12,59,30.30
2010,08,15,13,00,30.30
2010,08,15,13,01,30.40
2010,08,15,13,02,30.50
2010,08,15,13,03,30.60
2010,08,15,13,04,30.70
2010,08,15,13,05,30.80
2010,08,15,13,06,30.90
2010,08,15,13,07,31.00
2010,08,15,13,08,31.00
2010,08,15,13,09,31.10
2010,08,15,13,10,31.20
2010,08,15,13,11,31.20
2010,08,15,13,12,31.30
2010,08,15,13,13,31.30
2010,08,15,13,14,31.30
2010,08,15,13,15,31.30
2010,08,15,13,16,31.40
2010,08,15,13,17,31.40
2010,08,15,13,18,31.40
2010,08,15,13,19,31.40
2010,08,15,13,20,31.40
2010,08,15,13,21,31.40
2010,08,15,13,22,31.40
2010,08,15,13,23,31.40
2010,08,15,13,24,31.40
2010,08,15,13,25,31.40
2010,08,15,13,26,31.60
2010,08,15,13,27,31.60
2010,08,15,13,28,31.40
2010,08,15,13,29,31.20
2010,08,15,13,30,31.10
2010,08,15,13,31,30.90
2010,08,15,13,32,30.90
2010,08,15,13,33,30.90
2010,08,15,13,34,31.00
2010,08,15,13,35,30.70
2010,08,15,13,36,30.30
2010,08,15,13,37,30.10
2010,08,15,13,38,29.90
2010,08,15,13,39,29.70
2010,08,15,13,40,29.70
2010,08,15,13,41,29.70
2010,08,15,13,42,29.40
2010,08,15,13,43,29.40
2010,08,15,13,44,29.30
2010,08,15,13,45,29.30
2010,08,15,13,46,29.40
2010,08,15,13,47,29.30
2010,08,15,13,48,29.30
2010,08,15,13,49,29.20
2010,08,15,13,50,29.30
2010,08,15,13,51,29.30
2010,08,15,13,52,29.30
2010,08,15,13,53,29.30
2010,08,15,13,54,29.30
2010,08,15,13,55,29.30
2010,08,15,13,56,29.40
2010,08,15,13,57,29.50
2010,08,15,13,58,29.50
2010,08,15,13,59,29.40
2010,08,15,14,00,29.30
2010,08,15,14,01,29.00
2010,08,15,14,02,28.90
2010,08,15,14,03,28.80
2010,08,15,14,04,28.70
2010,08,15,14,05,28.60
2010,08,15,14,06,28.30
2010,08,15,14,07,28.20
2010,08,15,14,08,28.10
2010,08,15,14,09,28.10
2010,08,15,14,10,28.10
2010,08,15,14,11,28.10
2010,08,15,14,12,28.00
2010,08,15,14,13,27.90
2010,08,15,14,14,27.70
2010,08,15,14,15,27.50
2010,08,15,14,16,27.30
2010,08,15,14,17,27.30
2010,08,15,14,18,27.20
2010,08,15,14,19,27.20
2010,08,15,14,20,27.20
2010,08,15,14,21,27.30
2010,08,15,14,22,27.40
2010,08,15,14,23,27.50
2010,08,15,14,24,27.60
2010,08,15,14,25,27.70
2010,08,15,14,26,27.70
2010,08,15,14,27,27.80
2010,08,15,14,28,27.90
2010,08,15,14,29,28.00
2010,08,15,14,30,28.10
2010,08,15,14,31,28.30
2010,08,15,14,32,28.50
2010,08,15,14,33,28.60
2010,08,15,14,34,28.70
2010,08,15,14,35,28.80
2010,08,15,14,36,28.80
2010,08,15,14,37,28.60
2010,08,15,14,38,28.60
2010,08,15,14,39,28.60
2010,08,15,14,40,28.60
2010,08,15,14,41,28.60
2010,08,15,14,42,28.70
2010,08,15,14,43,28.70
2010,08,15,14,44,28.60
2010,08,15,14,45,28.50
2010,08,15,14,46,28.40
2010,08,15,14,47,28.20
2010,08,15,14,48,28.00
2010,08,15,14,49,27.90
2010,08,15,14,50,27.80
2010,08,15,14,51,27.90
2010,08,15,14,52,27.90
2010,08,15,14,53,27.90
2010,08,15,14,54,27.90
2010,08,15,14,55,27.90
2010,08,15,14,56,27.90
2010,08,15,14,57,28.00
2010,08,15,14,58,28.10
2010,08,15,14,59,28.20
2010,08,15,15,00,28.30
2010,08,15,15,01,28.30
2010,08,15,15,02,28.30
2010,08,15,15,03,28.30
2010,08,15,15,04,28.40
2010,08,15,15,05,28.50
2010,08,15,15,06,28.60
2010,08,15,15,07,28.70
2010,08,15,15,08,28.70
2010,08,15,15,09,28.70
2010,08,15,15,10,28.60
2010,08,15,15,11,28.50
2010,08,15,15,12,28.30
2010,08,15,15,13,28.20
2010,08,15,15,14,28.10
2010,08,15,15,15,28.20
2010,08,15,15,16,28.20
2010,08,15,15,17,28.20
2010,08,15,15,18,28.20
2010,08,15,15,19,28.20
2010,08,15,15,20,28.30
2010,08,15,15,21,28.30
2010,08,15,15,22,28.10
2010,08,15,15,23,28.00
2010,08,15,15,24,27.90
2010,08,15,15,25,28.00
2010,08,15,15,26,28.00
2010,08,15,15,27,28.00
2010,08,15,15,28,27.80
2010,08,15,15,29,27.50
2010,08,15,15,30,27.30
2010,08,15,15,31,27.30
2010,08,15,15,32,27.30
2010,08,15,15,33,27.30
2010,08,15,15,34,27.40
2010,08,15,15,35,27.40
2010,08,15,15,36,27.30
2010,08,15,15,37,27.30
2010,08,15,15,38,27.30
2010,08,15,15,39,27.30
2010,08,15,15,40,27.20
2010,08,15,15,41,27.20
2010,08,15,15,42,27.10
2010,08,15,15,43,26.90
2010,08,15,15,44,26.60
2010,08,15,15,45,26.50
2010,08,15,15,46,26.30
2010,08,15,15,47,26.20
2010,08,15,15,48,26.20
2010,08,15,15,49,26.10
2010,08,15,15,50,26.10
2010,08,15,15,51,26.10
2010,08,15,15,52,26.20
2010,08,15,15,53,26.30
2010,08,15,15,54,26.40
2010,08,15,15,55,26.40
2010,08,15,15,56,26.60
2010,08,15,15,57,26.60
2010,08,15,15,58,26.70
2010,08,15,15,59,26.80
2010,08,15,16,00,27.00
2010,08,15,16,01,27.10
2010,08,15,16,02,27.10
2010,08,15,16,03,27.20
2010,08,15,16,04,27.20
2010,08,15,16,05,27.30
2010,08,15,16,06,27.20
2010,08,15,16,07,27.10
2010,08,15,16,08,27.00
2010,08,15,16,09,27.00
2010,08,15,16,10,27.10
2010,08,15,16,11,27.10
2010,08,15,16,12,27.20
2010,08,15,16,13,27.10
2010,08,15,16,14,27.00
2010,08,15,16,15,26.90
2010,08,15,16,16,26.80
2010,08,15,16,17,26.80
2010,08,15,16,18,26.70
2010,08,15,16,19,26.70
2010,08,15,16,20,26.60
2010,08,15,16,21,26.70
2010,08,15,16,22,26.70
2010,08,15,16,23,26.70
2010,08,15,16,24,26.60
2010,08,15,16,25,26.50
2010,08,15,16,26,26.40
2010,08,15,16,27,26.40
2010,08,15,16,28,26.40
2010,08,15,16,29,26.50
2010,08,15,16,30,26.60
2010,08,15,16,31,26.80
2010,08,15,16,32,26.80
2010,08,15,16,33,26.90
2010,08,15,16,34,26.90
2010,08,15,16,35,26.90
2010,08,15,16,36,26.80
2010,08,15,16,37,26.80
2010,08,15,16,38,26.90
2010,08,15,16,39,27.00
2010,08,15,16,40,27.20
2010,08,15,16,41,27.30
2010,08,15,16,42,27.40
2010,08,15,16,43,27.50
2010,08,15,16,44,27.70
2010,08,15,16,45,27.70
2010,08,15,16,46,27.80
2010,08,15,16,47,27.80
2010,08,15,16,48,27.80
2010,08,15,16,49,27.70
2010,08,15,16,50,27.70
2010,08,15,16,51,27.60
2010,08,15,16,52,27.60
2010,08,15,16,53,27.60
2010,08,15,16,54,27.50
2010,08,15,16,55,27.40
2010,08,15,16,56,27.30
2010,08,15,16,57,27.30
2010,08,15,16,58,27.20
2010,08,15,16,59,27.20
2010,08,15,17,00,27.20
2010,08,15,17,01,27.30
2010,08,15,17,02,27.30
2010,08,15,17,03,27.30
2010,08,15,17,04,27.30
2010,08,15,17,05,27.30
2010,08,15,17,06,27.30
2010,08,15,17,07,27.30
2010,08,15,17,08,27.30
2010,08,15,17,09,27.30
2010,08,15,17,10,27.30
2010,08,15,17,11,27.30
2010,08,15,17,12,27.30
2010,08,15,17,13,27.30
2010,08,15,17,14,27.30
2010,08,15,17,15,27.20
2010,08,15,17,16,27.20
2010,08,15,17,17,27.30
2010,08,15,17,18,27.30
2010,08,15,17,19,27.30